• In Moldova, Republic
  • List of Countries
  • For 7 days
  • Water Temperature
  • Satellite Maps
  • Weather Map
  • Weather Widgets
  • user-avatar
    Login

    Hourly Weather Shusha

    Today, 30 May, Tuesday

    Time Temperature Precipitation Wind Pressure Humidity
    00:00 +11°C° 0 mm 1 mps 662 mmHg 84%
    01:00 +10°C° 0 mm 1 mps 661 mmHg 85%
    02:00 +10°C° 0 mm 1 mps 661 mmHg 85%
    03:00 +9°C° 0 mm 1 mps 661 mmHg 88%
    04:00 +11°C° 0 mm 1 mps 661 mmHg 83%
    05:00 +12°C° 0 mm 1 mps 661 mmHg 79%
    06:00 +14°C° 0 mm 1 mps 662 mmHg 75%
    07:00 +16°C° 0 mm 1 mps 662 mmHg 67%
    08:00 +19°C° 0 mm 1 mps 662 mmHg 59%
    09:00 +20°C° 0 mm 2 mps 662 mmHg 51%
    10:00 +21°C° 0 mm 2 mps 662 mmHg 47%
    11:00 +23°C° 0 mm 2 mps 662 mmHg 43%
    12:00 +25°C° 0 mm 3 mps 662 mmHg 40%
    13:00 +25°C° 0 mm 3 mps 662 mmHg 39%
    14:00 +25°C° 0 mm 3 mps 662 mmHg 39%
    15:00 +26°C° 0 mm 3 mps 661 mmHg 38%
    16:00 +25°C° 0 mm 2 mps 661 mmHg 43%
    17:00 +24°C° 0 mm 2 mps 661 mmHg 47%
    18:00 +23°C° 0 mm 1 mps 660 mmHg 51%
    19:00 +21°C° 0 mm 1 mps 660 mmHg 58%
    20:00 +18°C° 0 mm 1 mps 659 mmHg 64%
    21:00 +14°C° 0 mm 1 mps 659 mmHg 71%
    22:00 +15°C° 0 mm 1 mps 659 mmHg 69%
    23:00 +15°C° 0 mm 2 mps 659 mmHg 67%

    Tomorrow, 31 May, Wednesday

    Time Temperature Precipitation Wind Pressure Humidity
    00:00 +15°C° 0 mm 2 mps 659 mmHg 65%
    01:00 +14°C° 0 mm 2 mps 659 mmHg 63%
    02:00 +14°C° 0 mm 2 mps 659 mmHg 62%
    03:00 +14°C° 0 mm 2 mps 658 mmHg 60%
    04:00 +15°C° 0 mm 2 mps 659 mmHg 58%
    05:00 +16°C° 0 mm 2 mps 659 mmHg 56%
    06:00 +17°C° 0 mm 2 mps 659 mmHg 53%
    07:00 +19°C° 0 mm 2 mps 660 mmHg 46%
    08:00 +23°C° 0 mm 2 mps 660 mmHg 39%
    09:00 +25°C° 0 mm 2 mps 661 mmHg 31%
    10:00 +26°C° 0 mm 2 mps 660 mmHg 30%
    11:00 +27°C° 0 mm 3 mps 660 mmHg 29%
    12:00 +28°C° 0 mm 3 mps 660 mmHg 27%
    13:00 +28°C° 0 mm 3 mps 659 mmHg 28%
    14:00 +28°C° 0 mm 3 mps 659 mmHg 29%
    15:00 +28°C° 0 mm 3 mps 658 mmHg 30%
    16:00 +26°C° 0.4 mm 3 mps 658 mmHg 35%
    17:00 +25°C° 0.4 mm 2 mps 657 mmHg 41%
    18:00 +24°C° 0.4 mm 2 mps 657 mmHg 47%
    19:00 +20°C° 0.3 mm 2 mps 657 mmHg 55%
    20:00 +17°C° 0.3 mm 2 mps 656 mmHg 63%
    21:00 +15°C° 0.3 mm 1 mps 656 mmHg 71%
    22:00 +14°C° 0.4 mm 1 mps 656 mmHg 72%
    23:00 +14°C° 0.4 mm 1 mps 656 mmHg 73%

    Day after tomorrow, 1 June, Thursday

    Time Temperature Precipitation Wind Pressure Humidity
    00:00 +13°C° 0.4 mm 1 mps 656 mmHg 74%
    01:00 +13°C° 0.4 mm 1 mps 656 mmHg 76%
    02:00 +12°C° 0.4 mm 1 mps 656 mmHg 78%
    03:00 +11°C° 0.4 mm 1 mps 656 mmHg 80%
    04:00 +13°C° 0.2 mm 1 mps 656 mmHg 76%
    05:00 +14°C° 0.2 mm 1 mps 657 mmHg 72%
    06:00 +15°C° 0.2 mm 1 mps 658 mmHg 68%
    07:00 +18°C° 0.1 mm 1 mps 658 mmHg 61%
    08:00 +19°C° 0.1 mm 2 mps 658 mmHg 53%
    09:00 +20°C° 0.1 mm 2 mps 659 mmHg 46%
    10:00 +21°C° 0.2 mm 2 mps 659 mmHg 43%
    11:00 +22°C° 0.2 mm 3 mps 658 mmHg 40%
    12:00 +24°C° 0.2 mm 3 mps 658 mmHg 37%
    13:00 +24°C° 0.5 mm 3 mps 658 mmHg 37%
    14:00 +25°C° 0.5 mm 3 mps 658 mmHg 37%
    15:00 +25°C° 0.5 mm 3 mps 658 mmHg 38%
    16:00 +24°C° 0.4 mm 2 mps 657 mmHg 43%
    17:00 +23°C° 0.4 mm 2 mps 657 mmHg 47%
    18:00 +22°C° 0.4 mm 1 mps 657 mmHg 52%
    19:00 +20°C° 0.1 mm 1 mps 657 mmHg 59%
    20:00 +16°C° 0.1 mm 1 mps 657 mmHg 65%
    21:00 +14°C° 0.1 mm 1 mps 657 mmHg 72%
    22:00 +14°C° 0.2 mm 1 mps 657 mmHg 72%
    23:00 +13°C° 0.2 mm 1 mps 657 mmHg 72%

    2 June, Friday

    Time Temperature Precipitation Wind Pressure Humidity
    00:00 +13°C° 0.2 mm 1 mps 657 mmHg 71%
    01:00 +12°C° 0.1 mm 1 mps 657 mmHg 74%
    02:00 +11°C° 0.1 mm 1 mps 657 mmHg 76%
    03:00 +11°C° 0.1 mm 1 mps 657 mmHg 78%
    04:00 +12°C° 0 mm 1 mps 657 mmHg 74%
    05:00 +14°C° 0 mm 1 mps 658 mmHg 69%
    06:00 +15°C° 0 mm 1 mps 659 mmHg 65%
    07:00 +18°C° 0 mm 1 mps 659 mmHg 59%
    08:00 +19°C° 0 mm 2 mps 660 mmHg 52%
    09:00 +20°C° 0 mm 2 mps 660 mmHg 46%
    10:00 +21°C° 0.1 mm 2 mps 660 mmHg 44%
    11:00 +23°C° 0.1 mm 2 mps 660 mmHg 43%
    12:00 +24°C° 0.1 mm 3 mps 660 mmHg 41%
    13:00 +24°C° 0.4 mm 2 mps 660 mmHg 41%
    14:00 +24°C° 0.4 mm 2 mps 659 mmHg 41%
    15:00 +24°C° 0.4 mm 2 mps 659 mmHg 41%
    16:00 +24°C° 0.2 mm 2 mps 659 mmHg 44%
    17:00 +23°C° 0.2 mm 1 mps 659 mmHg 48%
    18:00 +22°C° 0.2 mm 1 mps 659 mmHg 51%
    19:00 +20°C° 0.3 mm 1 mps 659 mmHg 58%
    20:00 +18°C° 0.3 mm 1 mps 659 mmHg 64%
    21:00 +15°C° 0.3 mm 2 mps 659 mmHg 71%
    22:00 +14°C° 0.3 mm 2 mps 659 mmHg 72%
    23:00 +14°C° 0.3 mm 2 mps 660 mmHg 73%

    3 June, Saturday

    Time Temperature Precipitation Wind Pressure Humidity
    00:00 +14°C° 0.3 mm 2 mps 660 mmHg 74%
    01:00 +13°C° 0.2 mm 1 mps 660 mmHg 76%
    02:00 +12°C° 0.2 mm 1 mps 660 mmHg 79%
    03:00 +12°C° 0.2 mm 1 mps 660 mmHg 81%
    04:00 +13°C° 0.1 mm 1 mps 660 mmHg 78%
    05:00 +14°C° 0.1 mm 1 mps 661 mmHg 75%
    06:00 +15°C° 0.1 mm 1 mps 661 mmHg 73%
    07:00 +16°C° 0 mm 1 mps 662 mmHg 67%
    08:00 +19°C° 0 mm 1 mps 662 mmHg 62%
    09:00 +19°C° 0 mm 2 mps 663 mmHg 56%
    10:00 +20°C° 0.1 mm 2 mps 662 mmHg 54%
    11:00 +20°C° 0.1 mm 2 mps 662 mmHg 52%
    12:00 +21°C° 0.1 mm 3 mps 662 mmHg 50%
    13:00 +21°C° 0.2 mm 3 mps 662 mmHg 51%
    14:00 +21°C° 0.2 mm 3 mps 661 mmHg 52%
    15:00 +21°C° 0.2 mm 3 mps 661 mmHg 53%
    16:00 +20°C° 0.1 mm 3 mps 661 mmHg 56%
    17:00 +20°C° 0.1 mm 2 mps 661 mmHg 58%
    18:00 +19°C° 0.1 mm 2 mps 661 mmHg 61%
    19:00 +17°C° 0.2 mm 2 mps 661 mmHg 67%
    20:00 +15°C° 0.2 mm 1 mps 661 mmHg 73%
    21:00 +14°C° 0.2 mm 1 mps 661 mmHg 79%
    22:00 +13°C° 0.1 mm 1 mps 660 mmHg 80%
    23:00 +13°C° 0.1 mm 1 mps 660 mmHg 82%

    4 June, Sunday

    Time Temperature Precipitation Wind Pressure Humidity
    00:00 +12°C° 0.1 mm 1 mps 660 mmHg 84%
    01:00 +12°C° 0 mm 1 mps 660 mmHg 85%
    02:00 +11°C° 0 mm 1 mps 660 mmHg 86%
    03:00 +11°C° 0 mm 1 mps 660 mmHg 87%
    04:00 +12°C° 0 mm 1 mps 661 mmHg 83%
    05:00 +13°C° 0 mm 1 mps 661 mmHg 79%
    06:00 +14°C° 0 mm 0 mps 662 mmHg 75%
    07:00 +16°C° 0 mm 1 mps 663 mmHg 67%
    08:00 +19°C° 0 mm 1 mps 663 mmHg 60%
    09:00 +19°C° 0 mm 2 mps 664 mmHg 53%
    10:00 +20°C° 0.1 mm 2 mps 664 mmHg 52%
    11:00 +21°C° 0.1 mm 2 mps 663 mmHg 50%
    12:00 +21°C° 0.1 mm 3 mps 663 mmHg 49%
    13:00 +21°C° 0.1 mm 3 mps 663 mmHg 48%
    14:00 +22°C° 0.1 mm 3 mps 663 mmHg 48%
    15:00 +22°C° 0.1 mm 3 mps 663 mmHg 47%
    16:00 +21°C° 0 mm 3 mps 663 mmHg 49%
    17:00 +21°C° 0 mm 3 mps 663 mmHg 51%
    18:00 +20°C° 0 mm 3 mps 663 mmHg 53%
    19:00 +18°C° 0.2 mm 2 mps 662 mmHg 61%
    20:00 +15°C° 0.2 mm 2 mps 662 mmHg 69%
    21:00 +13°C° 0.2 mm 1 mps 662 mmHg 76%
    22:00 +12°C° 0.1 mm 1 mps 661 mmHg 78%
    23:00 +12°C° 0.1 mm 1 mps 661 mmHg 79%
    Show more